Location: Brookfield Center
(41.2406°N, 80.5579°W)
Time: 01:29:14
(UTC+00:00)

Okean-O - Pass Details

Date: 18 January 2020
Orbit: 639 x 640 km, 98.2° (Epoch: 28 February)

Event Time Altitude Azimuth Distance (km) Brightness Sun altitude
Rises 11:49:02 0° 19° (NNE) 2,955 6.1 -10.4°
Reaches altitude 10° 11:51:20 10° 25° (NNE) 2,040 5.3 -10.0°
Maximum altitude 11:55:37 47° 100° (E) 848 3.8 -9.3°
Drops below altitude 10° 11:59:53 10° 174° (S) 2,024 5.6 -8.5°
Sets 12:02:08 0° 180° (S) 2,928 6.3 -8.1°
